Simultaneous Nadir Overpasses (SNOs) Predictions

Prediction of SNOs between GOES-14 and NOAA-20 Satellite Orbit:

Table of predicted SNOs for the next 14.0 days since TLE Epoch: 12/4/2021
Index Date Time (GOES-14) GOES-14 Lat,Lon NOAA-20 Lat,Lon Distance(km) Time Diff (sec)
1 12/05/2021 08:32:22 0.05,-104.46 0.53,-106.54 237.47 80
2 12/06/2021 08:10:57 0.06,-104.46 -0.48,-102.01 279.04 80
3 12/07/2021 20:32:51 -0.04,-104.17 -0.74,-107.30 356.26 80
4 12/08/2021 20:16:46 -0.05,-104.18 0.27,-102.76 161.72 80
5 12/10/2021 08:38:34 0.02,-104.49 0.80,-108.05 405.13 80
6 12/11/2021 08:17:07 0.03,-104.49 -0.16,-103.50 112.03 80
7 12/13/2021 20:20:16 -0.02,-104.20 -0.05,-104.25 6.17 80
8 12/16/2021 08:25:59 0.02,-104.53 0.10,-105.00 53.01 80
9 12/17/2021 08:04:33 0.03,-104.53 -0.86,-100.45 464.31 80
